#timestamp,LO_Frequency,Hit,StdDev 
1553421615.8,286046999.3,N
1553421635.7,286046999.7,N
1553421655.5,286047000.2,N
1553421675.3,286047000.1,N
1553421695.2,286046999.8,N
1553421715.9,286046999.7,N
1553421735.7,286047002.3,Y
1553421755.6,286047002.3,P
1553421775.4,286047004.2,P
1553421795.3,286047003.6,N
1553421815.1,286047001.3,N
1553421816.0,286047001.3,N
1553421835.8,286047002.3,N
1553421855.7,286047001.4,N
1553421875.5,286047000.8,N
1553421895.3,286047000.5,N
1553421915.2,286047000.6,N
1553421935.0,286047000.8,N
1553421935.9,286047000.8,N
1553421955.8,286047004.4,Y
1553421975.6,286047000.5,P
1553421995.4,286047000.4,N
1553422015.3,286047000.3,N
1553422035.1,286047000.8,N
1553422055.8,286046998.9,N
1553422075.7,286046999.4,N
1553422095.5,286046997.7,N
1553422115.4,286046996.9,N
1553422135.2,286046998.3,N
1553422155.0,286047000.9,N
1553422155.9,286047000.9,N
1553422175.8,286047000.4,N
1553422195.6,286047002.3,N
1553422215.5,286047004.3,N
1553422235.3,286047002.9,N
1553422255.1,286047005.1,N
1553422275.9,286047001.3,N
1553422295.7,286047002.1,N
1553422315.5,286047002.4,N
1553422335.4,286047002.2,N
1553422355.2,286047004.2,N
1553422375.1,286047002.1,N
1553422376.0,286047002.1,N
1553422395.8,286047000.1,N
1553422415.6,286046999.7,N
1553422435.5,286047002.5,N
1553422455.3,286047004.3,N
1553422475.1,286047003.5,N
1553422495.9,286047003.6,N
1553422515.7,286047002.9,N
1553422535.6,286047004.1,N
1553422555.4,286047002.6,N
1553422575.2,286047001.7,N
1553422595.1,286047003.2,N
1553422596.0,286047003.2,N
1553422615.8,286047003.6,N
1553422635.6,286047004.3,N
1553422655.5,286047004.4,N
1553422675.3,286047004.1,N
1553422695.2,286047003.4,N
1553422715.0,286047003.5,N
1553422715.9,286047003.5,N
1553422735.7,286047001.8,N
1553422755.1,286047004.1,Y
1553422756.0,286047004.1,P
1553422775.8,286046998.1,P
1553422795.7,286047000.9,N
1553422815.5,286047002.0,N
1553422835.3,286047004.1,N
1553422855.2,286047001.6,N
1553422875.0,286047004.0,N
1553422875.9,286047004.0,N
1553422895.8,286047002.6,N
1553422915.6,286047002.4,N
1553422935.4,286047000.4,N
1553422955.3,286047000.5,N
1553422975.1,286047001.0,N
1553422995.8,286047002.1,N
1553423015.7,286047001.5,N
1553423035.5,286047002.3,N
1553423055.4,286047001.9,N
1553423075.2,286047003.7,N
1553423095.0,286047004.0,N
1553423095.9,286047004.0,N
1553423115.8,286047002.1,N
1553423135.6,286047001.3,N
1553423155.4,286047001.7,N
1553423175.3,286047000.1,N
1553423195.1,286047001.2,N
1553423215.9,286046998.4,N
1553423235.7,286047001.2,N
1553423255.5,286046999.9,N
1553423275.4,286047000.7,N
1553423295.2,286047002.4,N
1553423315.0,286047002.6,N
1553423315.9,286047002.6,N
1553423335.8,286047004.0,N
1553423355.6,286047002.1,N
1553423375.5,286047002.8,N
1553423395.3,286047002.5,N
1553423415.1,286047000.3,N
1553423435.9,286046998.8,N
1553423455.7,286046998.2,N
1553423475.5,286046998.5,N
1553423495.4,286046999.3,N
1553423515.2,286046999.4,N
1553423535.1,286046999.6,N
1553423536.0,286046999.6,N
1553423555.8,286046999.2,N
1553423575.6,286046998.4,N
1553423595.5,286047001.2,N
1553423615.3,286046999.8,N
1553423635.2,286047000.0,N
1553423655.9,286047000.5,N
1553423675.7,286047000.9,N
1553423695.6,286047000.5,N
1553423715.4,286047002.1,N
1553423735.2,286047001.5,N
1553423755.1,286047002.4,N
1553423756.0,286047002.4,N
1553423775.8,286047000.7,N
1553423795.7,286047001.2,N
1553423815.5,286047001.2,N
1553423835.3,286047000.7,N
1553423855.2,286046998.4,N
1553423875.0,286046998.7,N
1553423875.9,286046998.7,N
1553423895.7,286046998.8,N
1553423915.6,286047001.2,N
1553423935.4,286046998.8,N
1553423955.3,286047000.2,N
1553423975.1,286047000.6,N
1553423995.8,286047000.7,N
1553424015.7,286047000.2,N
1553424035.5,286046998.4,N
1553424055.4,286047000.5,N
1553424075.2,286046999.9,N
1553424095.0,286046999.9,N
1553424095.9,286046999.9,N
1553424115.8,286047000.7,N
1553424135.6,286047002.6,N
1553424155.4,286047000.4,N
1553424175.3,286047002.0,N
1553424195.1,286046999.8,N
1553424215.9,286047002.3,N
1553424235.7,286047000.4,N
1553424255.5,286046998.5,N
1553424275.4,286047002.4,N
1553424295.2,286047004.2,Y
1553424315.1,286047004.2,P
1553424316.0,286047004.2,N
1553424335.8,286047005.2,N
1553424355.6,286047004.0,N
1553424375.5,286047002.3,N
1553424395.3,286047002.3,N
1553424415.2,286046998.6,N
1553424435.9,286046998.5,N
1553424455.7,286046998.7,N
1553424475.6,286046998.4,N
1553424495.4,286046996.6,N
1553424515.2,286046997.4,N
1553424535.0,286046997.0,N
1553424536.0,286046997.0,N
1553424555.8,286047001.1,N
1553424575.6,286047002.6,N
1553424595.5,286047002.7,N
1553424615.3,286047002.7,N
1553424635.1,286047001.5,N
1553424655.9,286047003.1,N
1553424675.7,286047001.7,N
1553424695.5,286047002.7,N
1553424715.4,286047000.9,N
1553424735.2,286047002.7,N
1553424755.1,286047004.4,N
1553424756.0,286047004.4,N
1553424775.8,286047004.2,N
1553424795.6,286047002.6,N
1553424815.5,286047002.4,N
1553424835.3,286046999.7,N
1553424855.1,286047002.1,N
1553424875.9,286047000.4,N
1553424895.7,286047000.7,N
1553424915.6,286047000.0,N
1553424935.4,286046998.1,N
1553424955.2,286046998.8,N
1553424975.1,286047001.1,N
1553424976.0,286047001.1,N
1553424995.8,286046999.7,N
1553425015.6,286046998.2,N
1553425035.5,286046997.0,N
1553425055.3,286046998.8,N
1553425075.2,286047000.8,N
1553425095.9,286047002.4,N
1553425115.7,286047000.5,N
1553425135.6,286047001.0,N
1553425155.4,286046998.7,N
1553425175.2,286046999.1,N
1553425195.1,286046999.1,N
1553425196.0,286046999.1,N
